Omaha, IA

4:11 PM CDT on July 27, 2017 (GMT -0500)
Eppley Airfield

Weather History for KOMA - February, 2014

Change the Weather History Date:

Friday, February 7, 2014

  Actual Average Record
Temperature  
Mean Temperature 7 °F 26 °F  
Max Temperature 16 °F 36 °F 70 °F (1987)
Min Temperature -2 °F 16 °F -20 °F (1895)
Degree Days  
Heating Degree Days 58 39  
Month to date heating degree days 380 278  
Since 1 July heating degree days 4282 4043  
Cooling Degree Days 0 0  
Month to date cooling degree days 0 0  
Year to date cooling degree days 0 0  
Moisture  
Dew Point -1 °F    
Average Humidity 61    
Maximum Humidity 76    
Minimum Humidity 46    
Precipitation  
Precipitation T in 0.03 in 0.32 in (1881)
Month to date precipitation 0.17 0.19  
Year to date precipitation 0.31 0.91  
Snow  
Snow T in 0.20 in - ()
Month to date snowfall 4.8 1.6  
Since 1 July snowfall 10.2 16.7  
Snow Depth 3.00 in    
Sea Level Pressure  
Sea Level Pressure 30.34 in    
Wind  
Wind Speed 10 mph (South)    
Max Wind Speed 20 mph    
Max Gust Speed 23 mph    
Visibility 10 miles    
Events Snow    
T = Trace of Precipitation, MM = Missing Value Source: NWS Daily Summary

Daily Weather History Graph

Daily Weather History Graph

Search for Another Location

Airport or City:

Trip Planner

Search our weather history database for the weather conditions in past years. The results will help you decide how hot, cold, wet, or windy it might be!

Date:

Astronomy

Feb. 07, 2014 Rise Set
Actual Time 7:28 AM CST 5:47 PM CST
Civil Twilight 6:59 AM CST 6:16 PM CST
Nautical Twilight 6:26 AM CST 6:49 PM CST
Astronomical Twilight 5:54 AM CST 7:21 PM CST
Moon 11:59 AM CST (2/7) 1:45 AM CST (2/7)
Length of Visible Light 11h 16m
Length of Day
10h 19m
First Quarter, 59% of the Moon is Illuminated
Feb 7
First Quarter
Feb 14
Full
Feb 22
Last Quarter
Mar 1
New
Mar 8
First Quarter

Hourly Weather History & Observations

Time (CST) Temp. Windchill Dew Point Humidity Pressure Visibility Wind Dir Wind Speed Gust Speed Precip Events Conditions
12:52 AM 6.1 °F -7.8 °F -4.0 °F 63% 30.45 in 10.0 mi WSW 9.2 mph - N/A   Scattered Clouds
1:52 AM 6.1 °F -2.8 °F -2.9 °F 67% 30.45 in 10.0 mi Variable 4.6 mph - N/A   Partly Cloudy
2:52 AM 3.0 °F -4.4 °F -5.1 °F 69% 30.43 in 10.0 mi SE 3.5 mph - N/A   Partly Cloudy
3:52 AM -0.9 °F -17.4 °F -7.1 °F 75% 30.43 in 10.0 mi SSE 10.4 mph - N/A   Partly Cloudy
4:52 AM -0.9 °F -16.4 °F -7.1 °F 75% 30.42 in 10.0 mi SSE 9.2 mph - N/A   Partly Cloudy
5:52 AM 1.0 °F -12.9 °F -5.1 °F 75% 30.43 in 10.0 mi SE 8.1 mph - N/A   Overcast
6:52 AM 1.0 °F -11.7 °F -6.0 °F 72% 30.42 in 10.0 mi SE 6.9 mph - N/A   Scattered Clouds
7:52 AM -0.9 °F -15.3 °F -7.1 °F 75% 30.42 in 10.0 mi SE 8.1 mph - N/A   Scattered Clouds
8:52 AM 5.0 °F -8.1 °F -2.9 °F 70% 30.41 in 10.0 mi SSE 8.1 mph - N/A   Mostly Cloudy
9:52 AM 8.1 °F -4.3 °F -0.9 °F 67% 30.41 in 10.0 mi South 8.1 mph - N/A   Mostly Cloudy
10:52 AM 12.0 °F -2.7 °F -2.0 °F 53% 30.40 in 10.0 mi SW 12.7 mph - N/A   Mostly Cloudy
11:52 AM 12.9 °F -0.2 °F -0.9 °F 54% 30.38 in 10.0 mi SSW 10.4 mph - N/A   Scattered Clouds
12:52 PM 15.1 °F 1.8 °F -0.0 °F 51% 30.35 in 10.0 mi South 11.5 mph - N/A   Scattered Clouds
1:52 PM 15.1 °F 0.5 °F -2.0 °F 47% 30.31 in 10.0 mi SSW 13.8 mph - N/A   Scattered Clouds
2:52 PM 16.0 °F 0.1 °F -0.9 °F 47% 30.29 in 10.0 mi South 17.3 mph - N/A   Scattered Clouds
3:52 PM 15.1 °F 2.5 °F -0.0 °F 51% 30.27 in 10.0 mi South 10.4 mph - N/A   Mostly Cloudy
4:52 PM 14.0 °F -0.8 °F 1.9 °F 59% 30.27 in 10.0 mi South 13.8 mph - N/A   Overcast
5:52 PM 12.9 °F 0.7 °F 3.0 °F 65% 30.27 in 10.0 mi South 9.2 mph - N/A   Overcast
6:52 PM 12.9 °F -0.9 °F 3.0 °F 65% 30.27 in 10.0 mi South 11.5 mph - N/A   Overcast
7:52 PM 12.9 °F -2.2 °F 3.0 °F 65% 30.27 in 10.0 mi South 13.8 mph - N/A   Overcast
8:52 PM 12.9 °F -0.9 °F 3.0 °F 65% 30.27 in 10.0 mi South 11.5 mph - N/A   Overcast
9:52 PM 12.9 °F -0.9 °F 3.9 °F 67% 30.25 in 10.0 mi South 11.5 mph - 0.00 in Snow Light Snow
10:52 PM 12.9 °F -2.2 °F 5.0 °F 71% 30.23 in 7.0 mi South 13.8 mph - 0.00 in Snow Light Snow
11:52 PM 12.0 °F -2.0 °F 5.0 °F 73% 30.22 in 7.0 mi South 11.5 mph - 0.00 in Snow Light Snow